FW7772 Weather Reports


time (UTC)temp
C
wind
direction
speed
KPH
gust
KPH
rain 1hr
cm
rain 24hr
cm
rain mn
cm
humidity
%
barometer
mb
20260506015221 -5 270 6.4 9.7 0.00 0.03 0.00 85 1012.6
20260506014221 -5 300 6.4 9.7 0.00 0.03 0.00 85 1012.6
20260506013221 -5 300 6.4 9.7 0.00 0.03 0.00 85 1012.5
20260506012655 -5 310 6.4 8.0 0.00 0.03 0.00 85 1012.4
20260506011221 -5 310 3.2 6.4 0.00 0.03 0.00 85 1012.3
20260506010222 -4 288 3.2 4.8 0.00 0.03 0.00 85 1012.3
20260506005220 -4 265 6.4 11.3 0.00 0.03 0.00 86 1012.0
20260506004705 -4 305 6.4 11.3 0.00 0.03 0.00 86 1012.0
20260506004139 -4 329 4.8 8.0 0.00 0.03 0.00 86 1011.9
20260506002656 -4 327 6.4 11.3 0.00 0.03 0.00 86 1012.0
20260506001221 -4 293 3.2 6.4 0.00 0.03 0.00 85 1011.9
20260506000221 -4 285 3.2 4.8 0.00 0.03 0.00 85 1011.9
20260505235218 -4 262 1.6 3.2 0.00 0.03 0.00 84 1011.8
20260505234219 -4 257 1.6 4.8 0.00 0.03 0.00 84 1011.8
20260505233220 -3 206 1.6 4.8 0.00 0.03 0.00 84 1011.8
20260505232218 -3 351 0.0 1.6 0.00 0.03 0.00 84 1011.7
20260505231216 -3 351 0.0 1.6 0.00 0.03 0.00 84 1011.6
20260505230217 -3 351 0.0 1.6 0.00 0.03 0.00 84 1011.6
20260505225217 -3 351 1.6 3.2 0.00 0.03 0.00 84 1011.6
20260505224216 -3 351 1.6 3.2 0.00 0.03 0.00 84 1011.6
20260505223214 -3 351 0.0 3.2 0.00 0.03 0.00 84 1011.6
20260505222215 -3 338 1.6 3.2 0.00 0.03 0.00 83 1011.5
20260505221214 -3 330 0.0 3.2 0.00 0.03 0.00 83 1011.4
20260505220215 -2 330 1.6 3.2 0.00 0.03 0.00 82 1011.2
20260505215211 -2 327 4.8 8.0 0.00 0.03 0.03 81 1011.2
20260505214643 -2 276 3.2 8.0 0.00 0.03 0.03 80 1011.2
20260505213648 -2 327 1.6 4.8 0.03 0.03 0.03 79 1011.2
20260505212210 -2 321 3.2 4.8 0.03 0.03 0.03 79 1011.1
20260505211334 -2 289 1.6 4.8 0.03 0.05 0.03 78 1011.0
20260505205658 -1 289 1.6 3.2 0.03 0.08 0.03 76 1010.8
20260505204210 -1 289 1.6 3.2 0.03 0.13 0.03 75 1010.7
20260505203210 -1 283 4.8 6.4 0.00 0.13 0.00 75 1010.6
20260505202211 0 314 1.6 6.4 0.00 0.15 0.00 74 1010.6
20260505201210 0 275 3.2 4.8 0.00 0.18 0.00 74 1010.6
20260505200210 0 310 1.6 4.8 0.00 0.20 0.00 72 1010.3
20260505195211 0 263 1.6 3.2 0.00 0.23 0.00 71 1010.4
20260505194211 1 263 1.6 3.2 0.00 0.23 0.00 71 1010.2
20260505193207 1 263 0.0 1.6 0.00 0.23 0.00 69 1010.0
20260505192204 2 263 1.6 3.2 0.00 0.23 0.00 67 1009.9
20260505191205 2 263 0.0 1.6 0.00 0.23 0.00 66 1009.8
20260505190203 3 263 0.0 3.2 0.00 0.23 0.00 64 1009.8
20260505185202 3 263 3.2 4.8 0.00 0.23 0.00 63 1009.8
20260505184203 3 237 4.8 8.0 0.00 0.23 0.00 62 1009.7
20260505183202 4 231 4.8 14.5 0.00 0.23 0.00 59 1009.6
20260505182202 4 235 0.0 1.6 0.00 0.23 0.00 60 1009.6
20260505181202 4 235 1.6 9.7 0.00 0.23 0.00 60 1009.5
20260505180202 4 220 1.6 6.4 0.00 0.23 0.00 60 1009.4
20260505175201 4 268 1.6 4.8 0.00 0.23 0.00 60 1009.3
20260505174646 3 260 4.8 8.0 0.00 0.23 0.00 61 1009.4
20260505173201 3 289 4.8 8.0 0.00 0.23 0.00 61 1009.4
20260505172201 3 300 8.0 14.5 0.00 0.23 0.00 60 1009.3
20260505171201 3 318 6.4 19.3 0.00 0.23 0.00 59 1009.2
20260505170201 3 6 16.1 29.0 0.00 0.23 0.00 60 1009.3
20260505165201 3 300 22.5 33.8 0.00 0.23 0.00 60 1009.6
20260505165118 4 258 25.7 37.0 0.00 0.23 0.00 59 1009.5
20260505163201 5 300 27.4 40.2 0.00 0.23 0.00 57 1009.4
20260505162202 5 300 29.0 45.1 0.00 0.23 0.00 55 1009.3
20260505161201 5 310 17.7 32.2 0.00 0.23 0.00 45 1008.9
20260505161123 6 267 14.5 27.4 0.00 0.23 0.00 44 1008.7
20260505153201 6 268 14.5 22.5 0.00 0.23 0.00 44 1008.6
20260505152202 6 247 11.3 20.9 0.00 0.23 0.00 42 1008.7
20260505151641 6 310 12.9 19.3 0.00 0.23 0.00 42 1008.6
20260505150200 6 305 12.9 22.5 0.00 0.23 0.00 41 1008.6
20260505140200 6 343 22.5 40.2 0.00 0.23 0.00 46 1008.4
20260505130154 6 351 4.8 14.5 0.00 0.23 0.00 50 1007.9
20260505124154 6 18 14.5 32.2 0.00 0.23 0.00 49 1008.1
20260505123155 7 346 19.3 30.6 0.00 0.23 0.00 41 1008.1
20260505122152 7 270 17.7 32.2 0.00 0.23 0.00 39 1008.1
20260505121152 6 290 22.5 38.6 0.00 0.23 0.00 39 1008.1
20260505120632 6 287 12.9 22.5 0.00 0.23 0.00 40 1008.0
20260505115152 6 266 8.0 16.1 0.00 0.23 0.00 41 1007.8
20260505114152 6 237 6.4 16.1 0.00 0.23 0.00 40 1007.7
20260505113145 7 300 12.9 20.9 0.00 0.23 0.00 43 1007.7
20260505112146 6 310 22.5 41.8 0.00 0.23 0.00 39 1007.9
20260505111146 7 295 16.1 25.7 0.00 0.23 0.00 39 1007.5
20260505110146 6 291 17.7 27.4 0.00 0.23 0.00 43 1007.6
20260505102146 8 253 14.5 25.7 0.00 0.23 0.00 38 1007.4
20260505101146 7 249 12.9 20.9 0.00 0.23 0.00 42 1007.4
20260505100625 6 305 19.3 30.6 0.00 0.23 0.00 44 1007.6
20260505095145 5 283 19.3 27.4 0.00 0.23 0.00 45 1007.6
20260505094146 7 300 14.5 25.7 0.00 0.23 0.00 44 1007.3
20260505093631 6 289 17.7 33.8 0.00 0.23 0.00 48 1007.6
20260505092146 7 300 12.9 22.5 0.00 0.23 0.00 51 1007.5
20260505091146 6 290 14.5 27.4 0.00 0.23 0.00 47 1007.4
20260505090623 6 245 14.5 27.4 0.00 0.23 0.00 49 1007.3
20260505085141 6 324 12.9 27.4 0.00 0.23 0.00 50 1007.4
20260505084140 6 276 11.3 22.5 0.00 0.23 0.00 50 1007.1
20260505083141 5 285 9.7 20.9 0.00 0.23 0.00 52 1007.0
20260505082139 5 272 14.5 24.1 0.00 0.23 0.00 51 1007.0
20260505081139 5 316 16.1 24.1 0.00 0.23 0.00 49 1006.7
20260505080140 5 278 16.1 27.4 0.00 0.23 0.00 49 1006.7
20260505075139 5 328 17.7 29.0 0.00 0.23 0.00 49 1006.6
20260505074139 5 315 14.5 29.0 0.00 0.23 0.00 50 1006.6
20260505073617 5 322 8.0 24.1 0.00 0.23 0.00 53 1006.5
20260505072133 5 21 14.5 25.7 0.00 0.23 0.00 56 1006.6
20260505071133 4 330 11.3 19.3 0.00 0.23 0.00 57 1006.5
20260505070133 4 319 12.9 22.5 0.00 0.23 0.00 59 1006.4
20260505065133 3 358 12.9 24.1 0.00 0.23 0.00 62 1006.4
20260505064133 3 330 11.3 20.9 0.00 0.23 0.00 64 1006.4
20260505063134 3 327 11.3 22.5 0.00 0.23 0.00 64 1006.3
20260505062131 2 314 11.3 24.1 0.00 0.23 0.00 67 1006.2
20260505061130 2 1 11.3 22.5 0.00 0.23 0.00 70 1006.1
20260505061059 2 359 12.9 22.5 0.00 0.23 0.00 72 1006.1
20260505055131 1 277 9.7 16.1 0.00 0.23 0.00 73 1005.9
20260505054132 1 288 11.3 20.9 0.00 0.23 0.00 77 1005.9
20260505053132 1 305 9.7 17.7 0.00 0.23 0.00 78 1005.9
20260505052613 1 293 8.0 16.1 0.00 0.23 0.00 80 1005.7
20260505051130 0 278 9.7 19.3 0.00 0.23 0.00 81 1005.6
20260505050131 0 255 9.7 17.7 0.00 0.23 0.00 82 1005.5
20260505041129 0 269 6.4 12.9 0.00 0.23 0.00 87 1005.3
20260505040129 -1 293 6.4 11.3 0.00 0.23 0.00 87 1005.3
20260505035129 -1 296 6.4 9.7 0.00 0.23 0.00 88 1005.2
20260505034129 -1 300 6.4 11.3 0.00 0.23 0.00 89 1005.2
20260505033129 -1 280 8.0 12.9 0.00 0.23 0.00 89 1005.2
20260505032129 -1 274 8.0 14.5 0.00 0.23 0.00 89 1005.1
20260505031607 -1 277 9.7 14.5 0.00 0.23 0.00 90 1005.1
20260505030603 -1 281 8.0 14.5 0.00 0.23 0.00 90 1005.1
20260505025128 -1 246 4.8 8.0 0.00 0.23 0.00 89 1005.0
20260505024128 -1 243 1.6 4.8 0.00 0.23 0.00 90 1005.0
20260505023128 -1 325 1.6 6.4 0.00 0.23 0.00 90 1005.0
20260505022129 -1 272 8.0 14.5 0.00 0.23 0.00 89 1004.8
20260505021129 -1 266 6.4 12.9 0.00 0.23 0.00 89 1004.8
20260505020605 -1 300 4.8 8.0 0.00 0.23 0.00 89 1004.8